Time,TemperatureF,DewpointF,PressureIn,WindDirection,WindDirectionDegrees,WindSpeedMPH,WindSpeedGustMPH,Humidity,HourlyPrecipIn,Conditions,Clouds,dailyrainin,SolarRadiationWatts/m^2,SoftwareType,DateUTC
2013-02-11 00:00:00,67.4,61.7,30.15,North,5,12.7,12.7,82,0.00,RA,,0.00,0.0,WeatherDisplay:10.37,2013-02-11 10:00:00,
2013-02-11 00:05:00,67.4,61.7,30.15,NNE,32,12.7,12.7,82,0.00,RA,,0.00,0.0,WeatherDisplay:10.37,2013-02-11 10:05:00,
2013-02-11 00:10:00,67.3,61.6,30.15,NNE,12,10.4,10.4,82,0.00,,,0.00,0.0,WeatherDisplay:10.37,2013-02-11 10:10:00,
2013-02-11 00:15:00,67.3,61.6,30.15,ENE,70,9.2,9.2,82,0.00,,,0.00,0.0,WeatherDisplay:10.37,2013-02-11 10:15:00,
2013-02-11 00:20:00,67.3,61.6,30.15,North,355,9.2,9.2,82,0.00,,,0.00,0.0,WeatherDisplay:10.37,2013-02-11 10:20:00,
2013-02-11 00:25:00,67.3,62.0,30.15,NNE,32,10.4,10.4,83,0.00,,,0.00,0.0,WeatherDisplay:10.37,2013-02-11 10:25:00,
2013-02-11 00:30:00,67.2,61.9,30.15,ENE,65,11.5,11.5,83,0.00,,,0.00,0.0,WeatherDisplay:10.37,2013-02-11 10:30:00,
2013-02-11 00:35:00,67.2,61.9,30.15,North,5,11.5,11.5,83,0.00,,,0.00,0.0,WeatherDisplay:10.37,2013-02-11 10:35:00,
2013-02-11 00:40:00,67.1,61.8,30.15,North,9,15.0,15.0,83,0.00,,,0.00,0.0,WeatherDisplay:10.37,2013-02-11 10:40:00,
2013-02-11 00:45:00,67.1,61.8,30.15,NNE,30,6.9,6.9,83,0.00,,,0.00,0.0,WeatherDisplay:10.37,2013-02-11 10:45:00,
2013-02-11 00:50:00,67.1,61.4,30.14,NE,37,9.2,9.2,82,0.00,,,0.00,0.0,WeatherDisplay:10.37,2013-02-11 10:50:00,
2013-02-11 00:55:00,67.1,61.4,30.14,NNE,13,10.4,10.4,82,0.00,,,0.00,0.0,WeatherDisplay:10.37,2013-02-11 10:55:00,
2013-02-11 01:00:00,67.1,61.4,30.14,NNE,19,9.2,9.2,82,0.00,,,0.00,0.0,WeatherDisplay:10.37,2013-02-11 11:00:00,
2013-02-11 01:05:00,67.1,61.4,30.14,ENE,62,10.4,10.4,82,0.00,,,0.00,0.0,WeatherDisplay:10.37,2013-02-11 11:05:00,
2013-02-11 01:10:00,67.1,61.4,30.14,NE,43,9.2,9.2,82,0.00,,,0.00,0.0,WeatherDisplay:10.37,2013-02-11 11:10:00,
2013-02-11 01:15:00,67.1,61.4,30.14,NE,46,13.8,13.8,82,0.00,,,0.00,0.0,WeatherDisplay:10.37,2013-02-11 11:15:00,
2013-02-11 01:20:00,67.1,61.4,30.14,ENE,61,11.5,11.5,82,0.00,,,0.00,0.0,WeatherDisplay:10.37,2013-02-11 11:20:00,
2013-02-11 01:25:00,67.1,61.4,30.14,NNE,29,11.5,11.5,82,0.00,,,0.00,0.0,WeatherDisplay:10.37,2013-02-11 11:25:00,
2013-02-11 01:30:00,67.0,61.3,30.14,ENE,72,8.0,8.0,82,0.00,,,0.00,0.0,WeatherDisplay:10.37,2013-02-11 11:30:00,
2013-02-11 01:35:00,67.0,61.3,30.14,NNE,17,9.2,9.2,82,0.00,,,0.00,0.0,WeatherDisplay:10.37,2013-02-11 11:35:00,
2013-02-11 01:40:00,67.0,61.3,30.14,ENE,59,9.2,9.2,82,0.00,,,0.00,0.0,WeatherDisplay:10.37,2013-02-11 11:40:00,
2013-02-11 01:45:00,67.0,61.3,30.14,NNE,22,11.5,11.5,82,0.00,,,0.00,0.0,WeatherDisplay:10.37,2013-02-11 11:45:00,
2013-02-11 01:50:00,67.1,61.4,30.14,NE,50,11.5,11.5,82,0.00,,,0.00,0.0,WeatherDisplay:10.37,2013-02-11 11:50:00,
2013-02-11 01:55:00,67.1,61.8,30.14,NNE,27,10.4,10.4,83,0.00,,,0.00,0.0,WeatherDisplay:10.37,2013-02-11 11:55:00,
2013-02-11 02:00:00,67.0,61.7,30.14,ENE,77,7.0,7.0,83,0.00,,,0.00,0.0,WeatherDisplay:10.37,2013-02-11 12:00:00,
2013-02-11 02:05:00,67.0,61.7,30.13,North,355,8.1,8.1,83,0.00,,,0.00,0.0,WeatherDisplay:10.37,2013-02-11 12:05:00,
2013-02-11 02:10:00,67.0,61.7,30.13,NE,39,8.1,8.1,83,0.00,,,0.00,0.0,WeatherDisplay:10.37,2013-02-11 12:10:00,
2013-02-11 02:15:00,67.0,61.7,30.13,North,355,11.5,11.5,83,0.00,,,0.00,0.0,WeatherDisplay:10.37,2013-02-11 12:15:00,
2013-02-11 02:20:00,66.9,61.9,30.13,North,355,10.4,10.4,84,0.00,,,0.00,0.0,WeatherDisplay:10.37,2013-02-11 12:20:00,
2013-02-11 02:25:00,66.9,61.9,30.13,ENE,70,9.2,9.2,84,0.00,,,0.00,0.0,WeatherDisplay:10.37,2013-02-11 12:25:00,
2013-02-11 02:30:00,66.9,61.9,30.13,North,5,6.0,6.0,84,0.00,,,0.00,0.0,WeatherDisplay:10.37,2013-02-11 12:30:00,
2013-02-11 02:35:00,66.9,61.9,30.12,ENE,77,6.9,6.9,84,0.00,,,0.00,0.0,WeatherDisplay:10.37,2013-02-11 12:35:00,
2013-02-11 02:40:00,66.9,61.9,30.12,North,5,10.4,10.4,84,0.00,,,0.00,0.0,WeatherDisplay:10.37,2013-02-11 12:40:00,
2013-02-11 02:45:00,66.8,61.8,30.12,ENE,66,10.4,10.4,84,0.00,,,0.00,0.0,WeatherDisplay:10.37,2013-02-11 12:45:00,
2013-02-11 02:50:00,66.8,61.8,30.12,ENE,67,10.4,10.4,84,0.00,,,0.00,0.0,WeatherDisplay:10.37,2013-02-11 12:50:00,
2013-02-11 02:55:00,66.8,61.8,30.11,NNE,32,8.1,8.1,84,0.00,,,0.00,0.0,WeatherDisplay:10.37,2013-02-11 12:55:00,
2013-02-11 03:00:00,66.8,61.8,30.11,ENE,60,8.1,8.1,84,0.00,,,0.00,0.0,WeatherDisplay:10.37,2013-02-11 13:00:00,
2013-02-11 03:05:00,66.8,61.5,30.11,NE,42,9.2,9.2,83,0.00,,,0.00,0.0,WeatherDisplay:10.37,2013-02-11 13:05:00,
2013-02-11 03:10:00,66.8,61.5,30.11,North,5,10.4,10.4,83,0.00,,,0.00,0.0,WeatherDisplay:10.37,2013-02-11 13:10:00,
2013-02-11 03:15:00,67.0,61.7,30.11,NNE,32,11.5,11.5,83,0.00,,,0.00,0.0,WeatherDisplay:10.37,2013-02-11 13:15:00,
2013-02-11 03:20:00,67.0,61.7,30.11,NNE,30,9.0,9.0,83,0.00,,,0.00,0.0,WeatherDisplay:10.37,2013-02-11 13:20:00,
2013-02-11 03:25:00,67.0,61.7,30.11,East,81,13.8,13.8,83,0.00,,,0.00,0.0,WeatherDisplay:10.37,2013-02-11 13:25:00,
2013-02-11 03:30:00,67.0,61.7,30.11,ENE,65,8.1,8.1,83,0.00,,,0.00,0.0,WeatherDisplay:10.37,2013-02-11 13:30:00,
2013-02-11 03:35:00,67.0,61.7,30.11,NE,41,8.1,8.1,83,0.00,,,0.00,0.0,WeatherDisplay:10.37,2013-02-11 13:35:00,
2013-02-11 03:40:00,66.9,61.6,30.11,North,5,8.1,8.1,83,0.00,,,0.00,0.0,WeatherDisplay:10.37,2013-02-11 13:40:00,
2013-02-11 03:45:00,66.8,61.5,30.11,East,81,6.9,6.9,83,0.00,,,0.00,0.0,WeatherDisplay:10.37,2013-02-11 13:45:00,
2013-02-11 03:50:00,66.7,61.4,30.11,ENE,59,10.4,10.4,83,0.00,,,0.00,0.0,WeatherDisplay:10.37,2013-02-11 13:50:00,
2013-02-11 03:55:00,66.7,61.4,30.10,NNE,17,10.4,10.4,83,0.00,,,0.00,0.0,WeatherDisplay:10.37,2013-02-11 13:55:00,
2013-02-11 04:00:00,66.7,61.4,30.10,NW,320,10.4,10.4,83,0.00,,,0.00,0.0,WeatherDisplay:10.37,2013-02-11 14:00:00,
2013-02-11 04:05:00,66.7,61.4,30.11,NNE,33,9.2,9.2,83,0.00,,,0.00,0.0,WeatherDisplay:10.37,2013-02-11 14:05:00,
2013-02-11 04:10:00,66.7,61.4,30.10,ENE,58,11.5,11.5,83,0.00,,,0.00,0.0,WeatherDisplay:10.37,2013-02-11 14:10:00,
2013-02-11 04:15:00,66.7,61.4,30.10,NE,36,9.2,9.2,83,0.00,,,0.00,0.0,WeatherDisplay:10.37,2013-02-11 14:15:00,
2013-02-11 04:20:00,66.8,61.5,30.10,NNE,14,11.5,11.5,83,0.00,,,0.00,0.0,WeatherDisplay:10.37,2013-02-11 14:20:00,
2013-02-11 04:25:00,66.8,61.5,30.10,NE,56,10.4,10.4,83,0.00,,,0.00,0.0,WeatherDisplay:10.37,2013-02-11 14:25:00,
2013-02-11 04:30:00,66.8,61.5,30.10,NE,55,13.8,13.8,83,0.00,,,0.00,0.0,WeatherDisplay:10.37,2013-02-11 14:30:00,
2013-02-11 04:35:00,66.8,61.5,30.10,NE,54,11.5,11.5,83,0.00,,,0.00,0.0,WeatherDisplay:10.37,2013-02-11 14:35:00,
2013-02-11 04:40:00,66.8,61.5,30.11,ENE,61,11.0,11.0,83,0.00,,,0.00,0.0,WeatherDisplay:10.37,2013-02-11 14:40:00,
2013-02-11 04:45:00,66.7,61.4,30.10,ENE,65,8.1,8.1,83,0.00,,,0.00,0.0,WeatherDisplay:10.37,2013-02-11 14:45:00,
2013-02-11 04:50:00,66.6,61.3,30.10,ENE,64,10.4,10.4,83,0.00,,,0.00,0.0,WeatherDisplay:10.37,2013-02-11 14:50:00,
2013-02-11 04:55:00,66.6,61.3,30.10,ESE,108,11.5,11.5,83,0.00,,,0.00,0.0,WeatherDisplay:10.37,2013-02-11 14:55:00,
2013-02-11 05:00:00,66.6,61.3,30.10,NNE,24,11.5,11.5,83,0.00,,,0.00,0.0,WeatherDisplay:10.37,2013-02-11 15:00:00,
2013-02-11 05:05:00,66.6,61.3,30.10,ENE,69,12.7,12.7,83,0.00,,,0.00,0.0,WeatherDisplay:10.37,2013-02-11 15:05:00,
2013-02-11 05:10:00,66.6,61.3,30.11,ENE,70,11.5,11.5,83,0.00,,,0.00,0.0,WeatherDisplay:10.37,2013-02-11 15:10:00,
2013-02-11 05:15:00,66.6,61.3,30.10,ENE,78,10.4,10.4,83,0.00,,,0.00,0.0,WeatherDisplay:10.37,2013-02-11 15:15:00,
2013-02-11 05:20:00,66.6,61.3,30.11,North,350,8.1,8.1,83,0.00,,,0.00,0.0,WeatherDisplay:10.37,2013-02-11 15:20:00,
2013-02-11 05:25:00,66.5,61.2,30.10,East,92,10.4,10.4,83,0.00,,,0.00,0.0,WeatherDisplay:10.37,2013-02-11 15:25:00,
2013-02-11 05:30:00,66.5,61.2,30.11,NNE,24,9.2,9.2,83,0.00,,,0.00,0.0,WeatherDisplay:10.37,2013-02-11 15:30:00,
2013-02-11 05:35:00,66.5,61.5,30.11,NNW,348,8.1,8.1,84,0.00,,,0.00,0.0,WeatherDisplay:10.37,2013-02-11 15:35:00,
2013-02-11 05:40:00,66.6,61.6,30.11,ENE,78,9.2,9.2,84,0.00,,,0.00,0.0,WeatherDisplay:10.37,2013-02-11 15:40:00,
2013-02-11 05:45:00,66.5,61.5,30.11,NE,41,9.2,9.2,84,0.00,,,0.00,0.0,WeatherDisplay:10.37,2013-02-11 15:45:00,
2013-02-11 05:50:00,66.5,61.5,30.11,NE,48,8.1,8.1,84,0.00,,,0.00,0.0,WeatherDisplay:10.37,2013-02-11 15:50:00,
2013-02-11 05:55:00,66.5,61.5,30.11,NE,53,5.8,5.8,84,0.00,,,0.00,0.0,WeatherDisplay:10.37,2013-02-11 15:55:00,
2013-02-11 06:00:00,66.5,61.5,30.11,NNE,22,10.4,10.4,84,0.00,,,0.00,0.0,WeatherDisplay:10.37,2013-02-11 16:00:00,
2013-02-11 06:05:00,66.5,61.5,30.11,North,355,9.2,9.2,84,0.00,,,0.00,0.0,WeatherDisplay:10.37,2013-02-11 16:05:00,
2013-02-11 06:10:00,66.4,61.8,30.11,North,360,10.4,10.4,85,0.00,,,0.00,0.0,WeatherDisplay:10.37,2013-02-11 16:10:00,
2013-02-11 06:15:00,66.5,61.8,30.12,NNE,23,11.5,11.5,85,0.00,,,0.00,0.0,WeatherDisplay:10.37,2013-02-11 16:15:00,
2013-02-11 06:20:00,66.4,61.8,30.12,ENE,61,6.0,11.0,85,0.00,CLR,,0.00,0.0,WeatherDisplay:10.37,2013-02-11 16:20:00,
2013-02-11 06:30:00,66.3,61.7,30.12,NNE,31,5.0,14.0,85,0.00,CLR,,0.00,0.0,WeatherDisplay:10.37,2013-02-11 16:30:00,
2013-02-11 06:39:00,66.0,61.7,30.12,NE,43,11.5,11.5,86,0.00,CLR,,0.00,0.0,WeatherDisplay:10.37,2013-02-11 16:39:00,
2013-02-11 06:44:00,66.0,61.7,30.12,NNW,342,8.1,8.1,86,0.00,CLR,,0.00,0.0,WeatherDisplay:10.37,2013-02-11 16:44:00,
2013-02-11 06:49:00,66.0,61.7,30.13,East,80,9.2,9.2,86,0.00,CLR,,0.00,0.0,WeatherDisplay:10.37,2013-02-11 16:49:00,
2013-02-11 06:54:00,65.9,61.6,30.13,NE,56,11.5,11.5,86,0.00,CLR,,0.00,0.0,WeatherDisplay:10.37,2013-02-11 16:54:00,
2013-02-11 06:59:00,65.6,61.6,30.13,ENE,62,12.7,12.7,87,0.00,CLR,,0.00,0.0,WeatherDisplay:10.37,2013-02-11 16:59:00,
2013-02-11 07:04:00,65.4,61.4,30.14,NE,44,11.5,11.5,87,0.00,CLR,,0.00,0.0,WeatherDisplay:10.37,2013-02-11 17:04:00,
2013-02-11 07:09:00,65.3,61.7,30.14,ENE,71,9.2,9.2,88,0.00,CLR,,0.00,7.0,WeatherDisplay:10.37,2013-02-11 17:09:00,
2013-02-11 07:14:00,65.3,61.7,30.14,NNE,28,10.4,10.4,88,0.00,CLR,,0.00,12.0,WeatherDisplay:10.37,2013-02-11 17:14:00,
2013-02-11 07:19:00,65.3,62.0,30.14,North,360,11.5,11.5,89,0.00,BKN,,0.00,14.0,WeatherDisplay:10.37,2013-02-11 17:19:00,
2013-02-11 07:24:00,65.3,62.0,30.14,ENE,69,13.8,13.8,89,0.00,BKN,,0.00,18.0,WeatherDisplay:10.37,2013-02-11 17:24:00,
2013-02-11 07:29:00,65.3,62.0,30.14,NNE,26,10.4,10.4,89,0.00,FEW,,0.00,49.0,WeatherDisplay:10.37,2013-02-11 17:29:00,
2013-02-11 07:34:00,65.4,62.1,30.14,NNW,342,13.8,13.8,89,0.00,BKN,,0.00,26.0,WeatherDisplay:10.37,2013-02-11 17:34:00,
2013-02-11 07:39:00,65.4,62.1,30.15,ENE,59,6.9,6.9,89,0.00,BKN,,0.00,30.0,WeatherDisplay:10.37,2013-02-11 17:39:00,
2013-02-11 07:44:00,65.3,62.0,30.15,NNE,23,10.4,10.4,89,0.00,SCT,,0.00,62.0,WeatherDisplay:10.37,2013-02-11 17:44:00,
2013-02-11 07:49:00,65.4,62.4,30.15,NNE,16,11.0,11.0,90,0.00,CLR,,0.00,121.0,WeatherDisplay:10.37,2013-02-11 17:49:00,
2013-02-11 07:54:00,65.4,62.4,30.14,ENE,70,10.4,10.4,90,0.00,CLR,,0.00,93.0,WeatherDisplay:10.37,2013-02-11 17:54:00,
2013-02-11 07:59:00,65.5,62.5,30.14,NE,34,9.2,9.2,90,0.00,CLR,,0.00,65.0,WeatherDisplay:10.37,2013-02-11 17:59:00,
2013-02-11 08:04:00,65.6,62.6,30.15,NNE,24,11.5,11.5,90,0.00,CLR,,0.00,40.0,WeatherDisplay:10.37,2013-02-11 18:04:00,
2013-02-11 08:09:00,65.6,62.6,30.15,NNW,335,9.0,9.0,90,0.00,CLR,,0.00,123.0,WeatherDisplay:10.37,2013-02-11 18:09:00,
2013-02-11 08:14:00,65.7,62.4,30.15,NE,55,6.9,6.9,89,0.00,SCT,,0.00,65.0,WeatherDisplay:10.37,2013-02-11 18:14:00,
2013-02-11 08:19:00,65.7,62.4,30.16,ENE,76,9.2,9.2,89,0.00,CLR,,0.00,63.0,WeatherDisplay:10.37,2013-02-11 18:19:00,
2013-02-11 08:24:00,65.8,62.5,30.15,ENE,75,11.5,11.5,89,0.00,CLR,,0.00,128.0,WeatherDisplay:10.37,2013-02-11 18:24:00,
2013-02-11 08:29:00,66.0,63.0,30.15,East,86,10.4,10.4,90,0.00,CLR,,0.00,290.0,WeatherDisplay:10.37,2013-02-11 18:29:00,
2013-02-11 08:34:00,66.2,63.2,30.16,NE,44,13.8,13.8,90,0.00,CLR,,0.00,309.0,WeatherDisplay:10.37,2013-02-11 18:34:00,
2013-02-11 08:39:00,66.5,63.2,30.16,NNE,17,12.7,12.7,89,0.00,CLR,,0.00,330.0,WeatherDisplay:10.37,2013-02-11 18:39:00,
2013-02-11 08:44:00,66.7,63.4,30.16,East,96,11.5,11.5,89,0.00,CLR,,0.00,91.0,WeatherDisplay:10.37,2013-02-11 18:44:00,
2013-02-11 08:49:00,67.0,63.3,30.16,NE,51,11.5,11.5,88,0.00,CLR,,0.00,411.0,WeatherDisplay:10.37,2013-02-11 18:49:00,
2013-02-11 08:54:00,67.4,63.7,30.16,NNE,17,9.2,9.2,88,0.00,CLR,,0.00,359.0,WeatherDisplay:10.37,2013-02-11 18:54:00,
2013-02-11 08:59:00,67.6,63.6,30.15,ENE,59,9.2,9.2,87,0.00,CLR,,0.00,388.0,WeatherDisplay:10.37,2013-02-11 18:59:00,
2013-02-11 09:04:00,67.8,63.8,30.15,North,349,10.4,10.4,87,0.00,CLR,,0.00,441.0,WeatherDisplay:10.37,2013-02-11 19:04:00,
2013-02-11 09:09:00,68.0,64.0,30.16,North,11,8.1,8.1,87,0.00,CLR,,0.00,413.0,WeatherDisplay:10.37,2013-02-11 19:09:00,
2013-02-11 09:14:00,68.1,63.8,30.16,East,92,11.5,11.5,86,0.00,CLR,,0.00,403.0,WeatherDisplay:10.37,2013-02-11 19:14:00,
2013-02-11 09:19:00,68.2,63.9,30.16,NE,49,13.8,13.8,86,0.00,CLR,,0.00,448.0,WeatherDisplay:10.37,2013-02-11 19:19:00,
2013-02-11 09:24:00,68.4,64.0,30.16,ENE,76,8.1,8.1,86,0.00,CLR,,0.00,387.0,WeatherDisplay:10.37,2013-02-11 19:24:00,
2013-02-11 09:29:00,68.5,63.8,30.16,NE,38,12.7,12.7,85,0.00,CLR,,0.00,497.0,WeatherDisplay:10.37,2013-02-11 19:29:00,
2013-02-11 09:34:00,68.4,63.4,30.16,NE,55,11.5,11.5,84,0.00,BKN,,0.00,149.0,WeatherDisplay:10.37,2013-02-11 19:34:00,
2013-02-11 09:39:00,68.1,63.4,30.17,ENE,61,13.8,13.8,85,0.00,OVC,,0.00,111.0,WeatherDisplay:10.37,2013-02-11 19:39:00,
2013-02-11 09:44:00,67.9,63.2,30.17,ENE,67,8.1,8.1,85,0.00,BKN,,0.00,179.0,WeatherDisplay:10.37,2013-02-11 19:44:00,
2013-02-11 09:49:00,67.9,63.6,30.16,ENE,63,9.2,9.2,86,0.00,CLR,,0.00,568.0,WeatherDisplay:10.37,2013-02-11 19:49:00,
2013-02-11 09:54:00,68.3,63.9,30.16,ENE,76,8.1,8.1,86,0.00,CLR,,0.00,487.0,WeatherDisplay:10.37,2013-02-11 19:54:00,
2013-02-11 09:59:00,68.9,64.2,30.17,ENE,57,8.1,8.1,85,0.00,CLR,,0.00,621.0,WeatherDisplay:10.37,2013-02-11 19:59:00,
2013-02-11 10:04:00,69.4,64.4,30.17,ENE,64,11.5,11.5,84,0.00,CLR,,0.00,613.0,WeatherDisplay:10.37,2013-02-11 20:04:00,
2013-02-11 10:09:00,69.9,64.5,30.17,ENE,71,11.5,11.5,83,0.00,OVC,,0.00,234.0,WeatherDisplay:10.37,2013-02-11 20:09:00,
2013-02-11 10:14:00,70.1,64.3,30.17,NE,37,12.7,12.7,82,0.00,FEW,,0.00,353.0,WeatherDisplay:10.37,2013-02-11 20:14:00,
2013-02-11 10:19:00,70.3,64.2,30.17,ENE,64,9.2,9.2,81,0.00,SCT,,0.00,308.0,WeatherDisplay:10.37,2013-02-11 20:19:00,
2013-02-11 10:24:00,70.3,64.2,30.17,ENE,63,9.2,9.2,81,0.00,BKN,,0.00,301.0,WeatherDisplay:10.37,2013-02-11 20:24:00,
2013-02-11 10:29:00,70.2,64.1,30.17,ENE,72,12.7,12.7,81,0.00,CLR,,0.00,461.0,WeatherDisplay:10.37,2013-02-11 20:29:00,
2013-02-11 10:34:00,70.6,64.5,30.17,NE,34,8.1,8.1,81,0.00,CLR,,0.00,454.0,WeatherDisplay:10.37,2013-02-11 20:34:00,
2013-02-11 10:39:00,70.8,64.7,30.17,ESE,108,6.9,6.9,81,0.00,CLR,,0.00,763.0,WeatherDisplay:10.37,2013-02-11 20:39:00,
2013-02-11 10:44:00,71.2,65.1,30.17,NE,56,8.1,8.1,81,0.00,CLR,,0.00,747.0,WeatherDisplay:10.37,2013-02-11 20:44:00,
2013-02-11 10:49:00,71.8,65.3,30.17,NE,34,9.0,9.0,80,0.00,CLR,,0.00,831.0,WeatherDisplay:10.37,2013-02-11 20:49:00,
2013-02-11 10:54:00,72.2,65.0,30.17,ENE,59,11.5,11.5,78,0.00,BKN,,0.00,262.0,WeatherDisplay:10.37,2013-02-11 20:54:00,
2013-02-11 10:59:00,72.5,64.9,30.16,NNE,12,10.0,10.0,77,0.00,BKN,,0.00,338.0,WeatherDisplay:10.37,2013-02-11 20:59:00,
2013-02-11 11:04:00,72.5,64.5,30.16,NE,53,10.4,10.4,76,0.00,BKN,,0.00,517.0,WeatherDisplay:10.37,2013-02-11 21:04:00,
2013-02-11 11:09:00,72.2,63.8,30.16,ENE,76,11.5,11.5,75,0.00,BKN,,0.00,287.0,WeatherDisplay:10.37,2013-02-11 21:09:00,
2013-02-11 11:14:00,71.9,63.9,30.16,NE,49,11.5,11.5,76,0.00,OVC,,0.00,174.0,WeatherDisplay:10.37,2013-02-11 21:14:00,
2013-02-11 11:19:00,71.3,63.7,30.16,ENE,70,8.1,8.1,77,0.00,OVC,,0.00,251.0,WeatherDisplay:10.37,2013-02-11 21:19:00,
2013-02-11 11:24:00,71.1,64.3,30.16,East,93,9.2,9.2,79,0.00,BKN,,0.00,281.0,WeatherDisplay:10.37,2013-02-11 21:24:00,
2013-02-11 11:29:00,71.3,64.1,30.16,NNW,331,6.9,6.9,78,0.00,BKN,,0.00,308.0,WeatherDisplay:10.37,2013-02-11 21:29:00,
2013-02-11 11:34:00,71.5,64.6,30.15,NE,51,9.2,9.2,79,0.00,CLR,,0.00,352.0,WeatherDisplay:10.37,2013-02-11 21:34:00,
2013-02-11 11:39:00,71.8,64.6,30.16,ENE,77,10.4,10.4,78,0.00,BKN,,0.00,292.0,WeatherDisplay:10.37,2013-02-11 21:39:00,
2013-02-11 11:44:00,72.1,64.9,30.16,North,351,5.8,5.8,78,0.00,OVC,,0.00,251.0,WeatherDisplay:10.37,2013-02-11 21:44:00,
2013-02-11 11:49:00,71.8,64.2,30.15,ENE,73,10.0,10.0,77,0.00,BKN,,0.00,330.0,WeatherDisplay:10.37,2013-02-11 21:49:00,
2013-02-11 11:54:00,71.9,64.3,30.15,NE,35,8.0,8.0,77,0.00,OVC,,0.00,239.0,WeatherDisplay:10.37,2013-02-11 21:54:00,
2013-02-11 11:59:00,72.1,64.5,30.15,NNE,21,8.1,8.1,77,0.00,BKN,,0.00,1121.0,WeatherDisplay:10.37,2013-02-11 21:59:00,
2013-02-11 12:04:00,72.4,64.8,30.15,NE,51,10.4,10.4,77,0.00,CLR,,0.00,888.0,WeatherDisplay:10.37,2013-02-11 22:04:00,
2013-02-11 12:09:00,72.6,64.6,30.15,NE,53,9.2,9.2,76,0.00,CLR,,0.00,909.0,WeatherDisplay:10.37,2013-02-11 22:09:00,
2013-02-11 12:14:00,73.1,64.7,30.14,ENE,67,9.2,9.2,75,0.00,CLR,,0.00,981.0,WeatherDisplay:10.37,2013-02-11 22:14:00,
2013-02-11 12:19:00,73.2,64.4,30.14,NNE,24,11.5,11.5,74,0.00,CLR,,0.00,882.0,WeatherDisplay:10.37,2013-02-11 22:19:00,
2013-02-11 12:24:00,73.2,64.0,30.14,NE,53,6.9,6.9,73,0.00,CLR,,0.00,935.0,WeatherDisplay:10.37,2013-02-11 22:24:00,
2013-02-11 12:29:00,73.6,65.2,30.14,NNW,333,8.1,8.1,75,0.00,BKN,,0.00,339.0,WeatherDisplay:10.37,2013-02-11 22:29:00,
2013-02-11 12:34:00,73.4,64.6,30.14,NNE,24,8.1,8.1,74,0.00,BKN,,0.00,283.0,WeatherDisplay:10.37,2013-02-11 22:34:00,
2013-02-11 12:39:00,73.1,64.3,30.13,ENE,62,9.2,9.2,74,0.00,BKN,,0.00,436.0,WeatherDisplay:10.37,2013-02-11 22:39:00,
2013-02-11 12:44:00,72.8,64.0,30.13,NE,53,4.6,4.6,74,0.00,BKN,,0.00,265.0,WeatherDisplay:10.37,2013-02-11 22:44:00,
2013-02-11 12:49:00,72.5,64.1,30.12,NNE,29,8.1,8.1,75,0.00,OVC,,0.00,188.0,WeatherDisplay:10.37,2013-02-11 22:49:00,
2013-02-11 12:54:00,72.2,64.2,30.13,NE,53,6.0,6.0,76,0.00,OVC,,0.00,225.0,WeatherDisplay:10.37,2013-02-11 22:54:00,
2013-02-11 12:59:00,71.8,64.2,30.12,North,355,11.5,11.5,77,0.00,BKN,,0.00,329.0,WeatherDisplay:10.37,2013-02-11 22:59:00,
2013-02-11 13:04:00,71.8,64.6,30.12,NE,48,9.2,9.2,78,0.00,SCT,,0.00,464.0,WeatherDisplay:10.37,2013-02-11 23:04:00,
2013-02-11 13:09:00,72.1,64.5,30.12,ENE,67,11.5,11.5,77,0.00,BKN,,0.00,281.0,WeatherDisplay:10.37,2013-02-11 23:09:00,
2013-02-11 13:14:00,72.0,64.0,30.12,East,93,6.9,6.9,76,0.00,SCT,,0.00,432.0,WeatherDisplay:10.37,2013-02-11 23:14:00,
2013-02-11 13:19:00,72.2,64.2,30.11,NE,45,10.4,10.4,76,0.00,CLR,,0.00,446.0,WeatherDisplay:10.37,2013-02-11 23:19:00,
2013-02-11 13:24:00,72.4,64.0,30.11,ENE,63,10.4,10.4,75,0.00,OVC,,0.00,221.0,WeatherDisplay:10.37,2013-02-11 23:24:00,
2013-02-11 13:29:00,72.4,64.0,30.11,NE,50,7.0,7.0,75,0.00,CLR,,0.00,969.0,WeatherDisplay:10.37,2013-02-11 23:29:00,
2013-02-11 13:34:00,72.4,64.0,30.11,ENE,69,8.1,8.1,75,0.00,OVC,,0.00,209.0,WeatherDisplay:10.37,2013-02-11 23:34:00,
2013-02-11 13:39:00,72.1,64.1,30.10,NNE,29,8.1,8.1,76,0.00,SCT,,0.00,464.0,WeatherDisplay:10.37,2013-02-11 23:39:00,
2013-02-11 13:44:00,72.1,64.1,30.10,NE,49,12.7,12.7,76,0.00,BKN,,0.00,983.0,WeatherDisplay:10.37,2013-02-11 23:44:00,
2013-02-11 13:49:00,72.1,64.1,30.10,NNE,32,10.4,10.4,76,0.00,CLR,,0.00,1072.0,WeatherDisplay:10.37,2013-02-11 23:49:00,
2013-02-11 13:54:00,72.3,64.3,30.10,ENE,61,13.8,13.8,76,0.00,BKN,,0.00,353.0,WeatherDisplay:10.37,2013-02-11 23:54:00,
2013-02-11 13:59:00,72.2,64.2,30.09,ENE,76,11.5,11.5,76,0.00,CLR,,0.00,258.0,WeatherDisplay:10.37,2013-02-11 23:59:00,
2013-02-11 14:04:00,72.4,64.0,30.09,North,355,12.7,12.7,75,0.00,CLR,,0.00,1151.0,WeatherDisplay:10.37,2013-02-12 00:04:00,
2013-02-11 14:09:00,72.6,64.2,30.10,NE,35,13.8,13.8,75,0.00,BKN,,0.00,404.0,WeatherDisplay:10.37,2013-02-12 00:09:00,
2013-02-11 14:14:00,72.4,64.0,30.09,ENE,60,13.8,13.8,75,0.00,CLR,,0.00,984.0,WeatherDisplay:10.37,2013-02-12 00:14:00,
2013-02-11 14:19:00,72.4,64.0,30.09,ENE,63,11.5,11.5,75,0.00,CLR,,0.00,1063.0,WeatherDisplay:10.37,2013-02-12 00:19:00,
2013-02-11 14:24:00,72.4,64.0,30.08,NE,44,14.0,14.0,75,0.00,CLR,,0.00,809.0,WeatherDisplay:10.37,2013-02-12 00:24:00,
2013-02-11 14:29:00,72.3,63.5,30.08,East,82,13.8,13.8,74,0.00,CLR,,0.00,826.0,WeatherDisplay:10.37,2013-02-12 00:29:00,
2013-02-11 14:34:00,72.2,63.4,30.08,NE,54,17.3,17.3,74,0.00,SCT,,0.00,378.0,WeatherDisplay:10.37,2013-02-12 00:34:00,
2013-02-11 14:39:00,72.1,63.4,30.08,SE,126,13.8,13.8,74,0.00,SCT,,0.00,396.0,WeatherDisplay:10.37,2013-02-12 00:39:00,
2013-02-11 14:44:00,71.9,63.5,30.07,ENE,62,12.7,12.7,75,0.00,BKN,,0.00,250.0,WeatherDisplay:10.37,2013-02-12 00:44:00,
2013-02-11 14:49:00,71.3,63.0,30.07,NE,36,12.7,12.7,75,0.00,BKN,,0.00,258.0,WeatherDisplay:10.37,2013-02-12 00:49:00,
2013-02-11 14:54:00,71.0,63.1,30.07,NE,51,12.7,12.7,76,0.00,CLR,,0.00,784.0,WeatherDisplay:10.37,2013-02-12 00:54:00,
2013-02-11 14:59:00,70.8,63.2,30.07,ENE,60,18.4,18.4,77,0.00,CLR,,0.00,707.0,WeatherDisplay:10.37,2013-02-12 00:59:00,
2013-02-11 15:04:00,70.8,63.2,30.07,NNE,20,10.4,10.4,77,0.00,CLR,,0.00,680.0,WeatherDisplay:10.37,2013-02-12 01:04:00,
2013-02-11 15:09:00,70.9,63.0,30.07,North,5,15.0,15.0,76,0.00,CLR,,0.00,687.0,WeatherDisplay:10.37,2013-02-12 01:09:00,
2013-02-11 15:14:00,71.2,63.2,30.07,East,89,14.0,14.0,76,0.00,CLR,,0.00,664.0,WeatherDisplay:10.37,2013-02-12 01:14:00,
2013-02-11 15:19:00,71.3,63.3,30.07,NE,42,11.5,11.5,76,0.00,CLR,,0.00,761.0,WeatherDisplay:10.37,2013-02-12 01:19:00,
2013-02-11 15:24:00,71.5,63.2,30.07,NNE,32,9.2,9.2,75,0.00,CLR,,0.00,761.0,WeatherDisplay:10.37,2013-02-12 01:24:00,
2013-02-11 15:29:00,71.5,62.8,30.07,ENE,75,13.8,13.8,74,0.00,CLR,,0.00,810.0,WeatherDisplay:10.37,2013-02-12 01:29:00,
2013-02-11 15:34:00,71.4,63.1,30.07,East,89,12.7,12.7,75,0.00,BKN,,0.00,795.0,WeatherDisplay:10.37,2013-02-12 01:34:00,
2013-02-11 15:39:00,71.2,62.9,30.07,North,9,17.3,17.3,75,0.00,CLR,,0.00,717.0,WeatherDisplay:10.37,2013-02-12 01:39:00,
2013-02-11 15:44:00,71.3,63.0,30.07,North,355,11.0,11.0,75,0.00,CLR,,0.00,362.0,WeatherDisplay:10.37,2013-02-12 01:44:00,
2013-02-11 15:49:00,71.3,63.0,30.07,North,360,11.5,11.5,75,0.00,CLR,,0.00,679.0,WeatherDisplay:10.37,2013-02-12 01:49:00,
2013-02-11 15:54:00,71.0,62.7,30.07,ENE,68,13.8,13.8,75,0.00,CLR,,0.00,584.0,WeatherDisplay:10.37,2013-02-12 01:54:00,
2013-02-11 15:59:00,71.0,63.1,30.07,ENE,78,10.4,10.4,76,0.00,CLR,,0.00,466.0,WeatherDisplay:10.37,2013-02-12 01:59:00,
2013-02-11 16:04:00,70.9,62.6,30.07,ENE,59,18.4,18.4,75,0.00,CLR,,0.00,680.0,WeatherDisplay:10.37,2013-02-12 02:04:00,
2013-02-11 16:09:00,70.7,62.8,30.07,East,81,16.1,16.1,76,0.00,CLR,,0.00,555.0,WeatherDisplay:10.37,2013-02-12 02:09:00,
2013-02-11 16:14:00,70.6,62.7,30.08,East,83,13.8,13.8,76,0.00,CLR,,0.00,635.0,WeatherDisplay:10.37,2013-02-12 02:14:00,
2013-02-11 16:19:00,70.5,62.6,30.07,ENE,63,15.0,15.0,76,0.00,CLR,,0.00,689.0,WeatherDisplay:10.37,2013-02-12 02:19:00,
2013-02-11 16:24:00,70.4,62.8,30.07,ENE,71,11.5,11.5,77,0.00,CLR,,0.00,323.0,WeatherDisplay:10.37,2013-02-12 02:24:00,
2013-02-11 16:29:00,70.4,62.8,30.07,ENE,70,13.8,13.8,77,0.00,CLR,,0.00,339.0,WeatherDisplay:10.37,2013-02-12 02:29:00,
2013-02-11 16:34:00,70.4,62.8,30.07,ENE,71,11.5,11.5,77,0.00,CLR,,0.00,610.0,WeatherDisplay:10.37,2013-02-12 02:34:00,
2013-02-11 16:39:00,70.5,62.9,30.08,NE,56,11.5,11.5,77,0.00,CLR,,0.00,246.0,WeatherDisplay:10.37,2013-02-12 02:39:00,
2013-02-11 16:44:00,70.3,62.7,30.08,NW,326,17.3,17.3,77,0.00,CLR,,0.00,494.0,WeatherDisplay:10.37,2013-02-12 02:44:00,
2013-02-11 16:49:00,69.9,62.4,30.08,East,97,11.5,11.5,77,0.00,CLR,,0.00,478.0,WeatherDisplay:10.37,2013-02-12 02:49:00,
2013-02-11 16:54:00,69.7,62.5,30.08,ENE,75,13.0,13.0,78,0.00,CLR,,0.00,439.0,WeatherDisplay:10.37,2013-02-12 02:54:00,
2013-02-11 16:59:00,69.7,62.2,30.08,East,80,16.0,16.0,77,0.00,CLR,,0.00,350.0,WeatherDisplay:10.37,2013-02-12 02:59:00,
2013-02-11 17:04:00,69.3,62.1,30.08,NE,42,19.6,19.6,78,0.00,CLR,,0.00,311.0,WeatherDisplay:10.37,2013-02-12 03:04:00,
2013-02-11 17:09:00,69.2,62.0,30.08,NE,40,15.0,15.0,78,0.00,CLR,,0.00,264.0,WeatherDisplay:10.37,2013-02-12 03:09:00,
2013-02-11 17:14:00,69.0,61.9,30.08,NNW,342,11.5,11.5,78,0.00,CLR,,0.00,258.0,WeatherDisplay:10.37,2013-02-12 03:14:00,
2013-02-11 17:19:00,68.8,62.0,30.08,NE,51,12.7,12.7,79,0.00,CLR,,0.00,255.0,WeatherDisplay:10.37,2013-02-12 03:19:00,
2013-02-11 17:24:00,68.7,61.9,30.09,NNE,31,11.5,11.5,79,0.00,CLR,,0.00,193.0,WeatherDisplay:10.37,2013-02-12 03:24:00,
2013-02-11 17:29:00,68.2,61.4,30.09,NNE,31,13.8,13.8,79,0.00,CLR,,0.00,165.0,WeatherDisplay:10.37,2013-02-12 03:29:00,
2013-02-11 17:34:00,68.0,61.6,30.09,NE,42,20.7,20.7,80,0.00,CLR,,0.00,134.0,WeatherDisplay:10.37,2013-02-12 03:34:00,
2013-02-11 17:39:00,67.7,61.3,30.09,ENE,63,10.4,10.4,80,0.00,CLR,,0.00,120.0,WeatherDisplay:10.37,2013-02-12 03:39:00,
2013-02-11 17:44:00,67.5,61.1,30.10,NNE,16,13.0,13.0,80,0.00,CLR,,0.00,90.0,WeatherDisplay:10.37,2013-02-12 03:44:00,
2013-02-11 17:49:00,67.1,61.1,30.10,NNE,30,13.0,13.0,81,0.00,CLR,,0.00,77.0,WeatherDisplay:10.37,2013-02-12 03:49:00,
2013-02-11 17:54:00,67.0,61.0,30.10,NNE,19,12.7,12.7,81,0.00,CLR,,0.00,58.0,WeatherDisplay:10.37,2013-02-12 03:54:00,
2013-02-11 17:59:00,66.7,60.7,30.10,NNW,348,16.1,16.1,81,0.00,SCT,,0.00,40.0,WeatherDisplay:10.37,2013-02-12 03:59:00,
2013-02-11 18:04:00,66.4,60.4,30.10,NE,44,18.4,18.4,81,0.00,BKN,,0.00,26.0,WeatherDisplay:10.37,2013-02-12 04:04:00,
2013-02-11 18:09:00,66.1,60.4,30.10,North,5,19.6,19.6,82,0.00,BKN,,0.00,18.0,WeatherDisplay:10.37,2013-02-12 04:09:00,
2013-02-11 18:14:00,65.9,60.2,30.11,North,9,12.0,12.0,82,0.00,BKN,,0.00,14.0,WeatherDisplay:10.37,2013-02-12 04:14:00,
2013-02-11 18:19:00,65.8,60.2,30.10,NNE,32,12.7,12.7,82,0.00,SCT,,0.00,11.0,WeatherDisplay:10.37,2013-02-12 04:19:00,
2013-02-11 18:24:00,65.7,60.1,30.10,NE,44,17.3,17.3,82,0.00,CLR,,0.00,7.0,WeatherDisplay:10.37,2013-02-12 04:24:00,
2013-02-11 18:29:00,65.5,59.9,30.11,NNW,342,18.4,18.4,82,0.00,CLR,,0.00,5.0,WeatherDisplay:10.37,2013-02-12 04:29:00,
2013-02-11 18:34:00,65.4,59.8,30.11,ENE,59,15.0,15.0,82,0.00,CLR,,0.00,0.0,WeatherDisplay:10.37,2013-02-12 04:34:00,
2013-02-11 18:39:00,65.3,59.7,30.10,ENE,64,17.3,17.3,82,0.00,CLR,,0.00,0.0,WeatherDisplay:10.37,2013-02-12 04:39:00,
2013-02-11 18:44:00,65.3,60.0,30.11,East,93,19.6,19.6,83,0.00,CLR,,0.00,0.0,WeatherDisplay:10.37,2013-02-12 04:44:00,
2013-02-11 18:49:00,65.2,59.9,30.11,NE,43,16.1,16.1,83,0.00,CLR,,0.00,0.0,WeatherDisplay:10.37,2013-02-12 04:49:00,
2013-02-11 18:54:00,65.2,59.9,30.12,NNE,15,12.7,12.7,83,0.00,CLR,,0.00,0.0,WeatherDisplay:10.37,2013-02-12 04:54:00,
2013-02-11 18:59:00,65.2,59.9,30.12,North,355,12.0,12.0,83,0.00,CLR,,0.00,0.0,WeatherDisplay:10.37,2013-02-12 04:59:00,
2013-02-11 19:00:00,65.2,59.9,30.12,East,96,11.5,11.5,83,0.00,CLR,,0.00,0.0,WeatherDisplay:10.37,2013-02-12 05:00:00,
2013-02-11 19:05:00,65.2,59.9,30.12,NNE,26,18.4,18.4,83,0.00,CLR,,0.00,0.0,WeatherDisplay:10.37,2013-02-12 05:05:00,
2013-02-11 19:10:00,65.1,60.1,30.12,NNE,17,15.0,15.0,84,0.00,CLR,,0.00,0.0,WeatherDisplay:10.37,2013-02-12 05:10:00,
2013-02-11 19:15:00,65.1,60.1,30.12,ESE,103,13.8,13.8,84,0.00,CLR,,0.00,0.0,WeatherDisplay:10.37,2013-02-12 05:15:00,
2013-02-11 19:20:00,65.2,60.2,30.12,NNE,14,12.7,12.7,84,0.00,CLR,,0.00,0.0,WeatherDisplay:10.37,2013-02-12 05:20:00,
2013-02-11 19:25:00,65.2,60.2,30.12,ENE,74,12.7,12.7,84,0.00,CLR,,0.00,0.0,WeatherDisplay:10.37,2013-02-12 05:25:00,
2013-02-11 19:30:00,65.2,60.2,30.12,North,5,14.0,14.0,84,0.00,CLR,,0.00,0.0,WeatherDisplay:10.37,2013-02-12 05:30:00,
2013-02-11 19:35:00,65.2,60.2,30.12,East,98,19.6,19.6,84,0.00,CLR,,0.00,0.0,WeatherDisplay:10.37,2013-02-12 05:35:00,
2013-02-11 19:40:00,65.2,60.2,30.12,NNE,30,15.0,15.0,84,0.00,CLR,,0.00,0.0,WeatherDisplay:10.37,2013-02-12 05:40:00,
2013-02-11 19:45:00,65.2,60.6,30.13,North,360,13.8,13.8,85,0.00,CLR,,0.00,0.0,WeatherDisplay:10.37,2013-02-12 05:45:00,
2013-02-11 19:50:00,65.3,60.3,30.13,NE,55,13.8,13.8,84,0.00,CLR,,0.00,0.0,WeatherDisplay:10.37,2013-02-12 05:50:00,
2013-02-11 19:55:00,65.4,60.4,30.13,North,355,8.0,8.0,84,0.00,CLR,,0.00,0.0,WeatherDisplay:10.37,2013-02-12 05:55:00,
2013-02-11 20:00:00,65.4,60.4,30.13,ENE,68,11.5,11.5,84,0.00,CLR,,0.00,0.0,WeatherDisplay:10.37,2013-02-12 06:00:00,
2013-02-11 20:05:00,65.4,60.4,30.12,NW,323,9.2,9.2,84,0.00,CLR,,0.00,0.0,WeatherDisplay:10.37,2013-02-12 06:05:00,
2013-02-11 20:10:00,65.4,60.4,30.13,NE,52,9.2,9.2,84,0.00,CLR,,0.00,0.0,WeatherDisplay:10.37,2013-02-12 06:10:00,
2013-02-11 20:15:00,65.4,60.4,30.13,NE,52,11.5,11.5,84,0.00,CLR,,0.00,0.0,WeatherDisplay:10.37,2013-02-12 06:15:00,
2013-02-11 20:20:00,65.4,60.4,30.13,NNE,12,9.2,9.2,84,0.00,CLR,,0.00,0.0,WeatherDisplay:10.37,2013-02-12 06:20:00,
2013-02-11 20:25:00,65.3,60.3,30.13,NNE,15,10.4,10.4,84,0.00,CLR,,0.00,0.0,WeatherDisplay:10.37,2013-02-12 06:25:00,
2013-02-11 20:30:00,65.3,60.7,30.13,NE,39,13.8,13.8,85,0.00,CLR,,0.00,0.0,WeatherDisplay:10.37,2013-02-12 06:30:00,
2013-02-11 20:35:00,65.3,60.7,30.13,NW,325,10.4,10.4,85,0.00,CLR,,0.00,0.0,WeatherDisplay:10.37,2013-02-12 06:35:00,
2013-02-11 20:40:00,65.3,60.7,30.14,North,360,11.5,11.5,85,0.00,CLR,,0.00,0.0,WeatherDisplay:10.37,2013-02-12 06:40:00,
2013-02-11 20:45:00,65.3,60.7,30.14,NE,43,16.1,16.1,85,0.00,CLR,,0.00,0.0,WeatherDisplay:10.37,2013-02-12 06:45:00,
2013-02-11 20:50:00,65.3,60.7,30.14,NNE,17,13.8,13.8,85,0.00,CLR,,0.00,0.0,WeatherDisplay:10.37,2013-02-12 06:50:00,
2013-02-11 20:55:00,65.2,60.6,30.15,NNW,331,13.8,13.8,85,0.00,CLR,,0.00,0.0,WeatherDisplay:10.37,2013-02-12 06:55:00,
2013-02-11 21:00:00,65.2,60.6,30.15,North,350,13.8,13.8,85,0.00,CLR,,0.00,0.0,WeatherDisplay:10.37,2013-02-12 07:00:00,
2013-02-11 21:05:00,65.1,60.5,30.15,North,10,11.0,11.0,85,0.00,CLR,,0.00,0.0,WeatherDisplay:10.37,2013-02-12 07:05:00,
2013-02-11 21:10:00,65.1,60.5,30.15,East,101,9.2,9.2,85,0.00,CLR,,0.00,0.0,WeatherDisplay:10.37,2013-02-12 07:10:00,
2013-02-11 21:15:00,65.1,60.5,30.15,East,82,10.4,10.4,85,0.00,CLR,,0.00,0.0,WeatherDisplay:10.37,2013-02-12 07:15:00,
2013-02-11 21:20:00,65.0,60.4,30.15,ENE,61,11.5,11.5,85,0.00,CLR,,0.00,0.0,WeatherDisplay:10.37,2013-02-12 07:20:00,
2013-02-11 21:25:00,65.0,60.4,30.15,East,80,8.1,8.1,85,0.00,CLR,,0.00,0.0,WeatherDisplay:10.37,2013-02-12 07:25:00,
2013-02-11 21:30:00,65.0,60.4,30.15,East,87,10.4,10.4,85,0.00,CLR,,0.00,0.0,WeatherDisplay:10.37,2013-02-12 07:30:00,
2013-02-11 21:35:00,65.0,60.4,30.16,ENE,58,11.5,11.5,85,0.00,CLR,,0.00,0.0,WeatherDisplay:10.37,2013-02-12 07:35:00,
2013-02-11 21:40:00,64.9,60.3,30.16,ENE,68,12.7,12.7,85,0.00,CLR,,0.00,0.0,WeatherDisplay:10.37,2013-02-12 07:40:00,
2013-02-11 21:45:00,64.9,60.3,30.16,NNE,16,10.4,10.4,85,0.00,CLR,,0.00,0.0,WeatherDisplay:10.37,2013-02-12 07:45:00,
2013-02-11 21:50:00,64.9,60.6,30.16,North,351,11.5,11.5,86,0.00,CLR,,0.00,0.0,WeatherDisplay:10.37,2013-02-12 07:50:00,
2013-02-11 21:55:00,65.0,60.7,30.16,ENE,57,12.7,12.7,86,0.00,CLR,,0.00,0.0,WeatherDisplay:10.37,2013-02-12 07:55:00,
2013-02-11 22:00:00,65.0,60.4,30.15,NE,45,12.7,12.7,85,0.00,CLR,,0.00,0.0,WeatherDisplay:10.37,2013-02-12 08:00:00,
2013-02-11 22:05:00,65.0,60.4,30.16,NNE,22,11.5,11.5,85,0.00,CLR,,0.00,0.0,WeatherDisplay:10.37,2013-02-12 08:05:00,
2013-02-11 22:10:00,64.9,60.3,30.16,NE,38,8.1,8.1,85,0.00,CLR,,0.00,0.0,WeatherDisplay:10.37,2013-02-12 08:10:00,
2013-02-11 22:15:00,64.8,60.2,30.15,NE,40,9.2,9.2,85,0.00,CLR,,0.00,0.0,WeatherDisplay:10.37,2013-02-12 08:15:00,
2013-02-11 22:20:00,64.8,60.2,30.17,NNE,25,15.0,15.0,85,0.00,CLR,,0.00,0.0,WeatherDisplay:10.37,2013-02-12 08:20:00,
2013-02-11 22:25:00,64.8,60.2,30.16,NNW,342,11.5,11.5,85,0.00,CLR,,0.00,0.0,WeatherDisplay:10.37,2013-02-12 08:25:00,
2013-02-11 22:30:00,64.9,59.9,30.16,ENE,65,17.3,17.3,84,0.00,CLR,,0.00,0.0,WeatherDisplay:10.37,2013-02-12 08:30:00,
2013-02-11 22:35:00,65.0,60.0,30.16,North,5,12.0,12.0,84,0.00,CLR,,0.00,0.0,WeatherDisplay:10.37,2013-02-12 08:35:00,
2013-02-11 22:40:00,65.1,60.1,30.16,NW,325,10.0,10.0,84,0.00,CLR,,0.00,0.0,WeatherDisplay:10.37,2013-02-12 08:40:00,
2013-02-11 22:45:00,65.2,60.2,30.16,North,355,9.2,9.2,84,0.00,CLR,,0.00,0.0,WeatherDisplay:10.37,2013-02-12 08:45:00,
2013-02-11 22:50:00,65.2,60.2,30.16,NNW,345,11.5,11.5,84,0.00,CLR,,0.00,0.0,WeatherDisplay:10.37,2013-02-12 08:50:00,
2013-02-11 22:55:00,65.1,60.1,30.16,ENE,71,11.5,11.5,84,0.00,CLR,,0.00,0.0,WeatherDisplay:10.37,2013-02-12 08:55:00,
2013-02-11 23:00:00,64.9,60.3,30.16,NNE,12,9.2,9.2,85,0.00,CLR,,0.00,0.0,WeatherDisplay:10.37,2013-02-12 09:00:00,
2013-02-11 23:05:00,64.8,60.2,30.16,North,360,11.5,11.5,85,0.00,CLR,,0.00,0.0,WeatherDisplay:10.37,2013-02-12 09:05:00,
2013-02-11 23:10:00,64.7,60.1,30.16,NNE,32,9.2,9.2,85,0.00,CLR,,0.00,0.0,WeatherDisplay:10.37,2013-02-12 09:10:00,
2013-02-11 23:15:00,64.7,60.1,30.16,NNW,339,9.2,9.2,85,0.00,CLR,,0.00,0.0,WeatherDisplay:10.37,2013-02-12 09:15:00,
2013-02-11 23:20:00,64.7,60.1,30.16,NE,54,12.0,12.0,85,0.00,CLR,,0.00,0.0,WeatherDisplay:10.37,2013-02-12 09:20:00,
2013-02-11 23:25:00,64.7,60.1,30.16,NNE,33,12.7,12.7,85,0.00,CLR,,0.00,0.0,WeatherDisplay:10.37,2013-02-12 09:25:00,
2013-02-11 23:30:00,64.7,60.4,30.16,NNE,15,15.0,15.0,86,0.00,CLR,,0.00,0.0,WeatherDisplay:10.37,2013-02-12 09:30:00,
2013-02-11 23:35:00,64.6,60.3,30.16,ENE,57,11.5,11.5,86,0.00,CLR,,0.00,0.0,WeatherDisplay:10.37,2013-02-12 09:35:00,
2013-02-11 23:40:00,64.4,60.4,30.16,NNE,23,13.8,13.8,87,0.00,CLR,,0.00,0.0,WeatherDisplay:10.37,2013-02-12 09:40:00,
2013-02-11 23:45:00,64.2,60.2,30.16,ENE,78,6.9,6.9,87,0.00,CLR,,0.00,0.0,WeatherDisplay:10.37,2013-02-12 09:45:00,
2013-02-11 23:50:00,64.0,60.4,30.15,NNW,348,10.4,10.4,88,0.00,CLR,,0.00,0.0,WeatherDisplay:10.37,2013-02-12 09:50:00,
2013-02-11 23:55:00,63.9,60.3,30.15,North,5,11.5,11.5,88,0.00,CLR,,0.00,0.0,WeatherDisplay:10.37,2013-02-12 09:55:00,